Accueil
METAR-TAF:

METAR-TAF

Aéroports :

Seldovia, Alaska, États-Unis

latitude: 59-27N, longitude: 151-42W, altitude: 9 m

Observation

Le bulletin a été fait il y a 1 heure et 3 minutes, à 18:53 UTC
Vent calme
Température 1°C
Humidité 100%
Pression 993 hPa
Visibilité: 6.4 km
Ciel couvert à une hauteur de 700 ft
pluie faible, brume

METAR: PASO 211853Z AUTO 00000KT 4SM -RA BR OVC007 01/01 A2932 RMK AO2 SLP928 P0003 T00110006 TSNO

Heure: 10:56 (19:56 UTC)


TAF: absent

Observations et prévisions météorologiques de plus de 4000 aéroports (messages METAR et TAF).

Les stations disponibles sont représentées par des disques jaunes et rouges sur la carte.

Passer la souris dessus pour voir le nom de la station.

Cliquer dessus pour voir les observations et prévisions météorologiques.

Pour changer de carte: cliquez sur les boutons verts avec une croix noire pour zoomer, sur le bouton vert avec un tiret pour effectuer un zoom arrière, ou sur les flèches vertes pour les cartes adjacentes.


METAR-TAF: